Time,TemperatureF,DewpointF,PressureIn,WindDirection,WindDirectionDegrees,WindSpeedMPH,WindSpeedGustMPH,Humidity,HourlyPrecipIn,Conditions,Clouds,dailyrainin,SoftwareType,DateUTC
2017-03-27 00:01:00,70.1,57.0,30.10,ESE,113,2.0,-999.0,63,0.00,,,0.00,,2017-03-27 04:01:00,
2017-03-27 00:06:00,70.0,56.0,30.10,SSE,158,2.0,-999.0,63,0.00,,,0.00,,2017-03-27 04:06:00,
2017-03-27 00:11:00,70.0,56.0,30.10,ESE,113,2.0,-999.0,63,0.00,,,0.00,,2017-03-27 04:11:00,
2017-03-27 00:16:00,70.0,56.0,30.10,West,270,2.0,-999.0,63,0.00,,,0.00,,2017-03-27 04:16:00,
2017-03-27 00:21:00,70.0,57.0,30.10,SE,135,2.0,-999.0,63,0.00,,,0.00,,2017-03-27 04:21:00,
2017-03-27 00:26:00,69.8,57.0,30.09,ENE,68,2.0,-999.0,65,0.00,,,0.00,,2017-03-27 04:26:00,
2017-03-27 00:31:00,69.8,57.0,30.10,NE,45,3.0,-999.0,65,0.00,,,0.00,,2017-03-27 04:31:00,
2017-03-27 00:36:00,69.8,57.0,30.09,South,180,0.0,-999.0,65,0.00,,,0.00,,2017-03-27 04:36:00,
2017-03-27 00:41:00,69.6,57.0,30.09,NE,45,2.0,-999.0,65,0.00,,,0.00,,2017-03-27 04:41:00,
2017-03-27 00:46:00,69.4,57.0,30.09,East,90,2.0,-999.0,65,0.00,,,0.00,,2017-03-27 04:46:00,
2017-03-27 00:51:00,69.3,57.0,30.09,ESE,113,2.0,-999.0,65,0.00,,,0.00,,2017-03-27 04:51:00,
2017-03-27 00:56:00,69.0,56.0,30.09,ESE,113,2.0,-999.0,65,0.00,,,0.00,,2017-03-27 04:56:00,
2017-03-27 01:01:00,68.6,56.0,30.09,SSE,158,0.0,-999.0,65,0.00,,,0.00,,2017-03-27 05:01:00,
2017-03-27 01:06:00,68.6,56.0,30.08,SE,135,1.0,-999.0,65,0.00,,,0.00,,2017-03-27 05:06:00,
2017-03-27 01:11:00,68.4,56.0,30.08,South,180,0.0,-999.0,65,0.00,,,0.00,,2017-03-27 05:11:00,
2017-03-27 01:16:00,68.4,56.0,30.08,ESE,113,1.0,-999.0,65,0.00,,,0.00,,2017-03-27 05:16:00,
2017-03-27 01:21:00,68.1,56.0,30.08,East,90,1.0,-999.0,65,0.00,,,0.00,,2017-03-27 05:21:00,
2017-03-27 01:26:00,68.0,56.0,30.07,SSE,158,0.0,-999.0,65,0.00,,,0.00,,2017-03-27 05:26:00,
2017-03-27 01:31:00,67.8,56.0,30.07,South,180,1.0,-999.0,66,0.00,,,0.00,,2017-03-27 05:31:00,
2017-03-27 01:36:00,67.6,56.0,30.07,East,90,1.0,-999.0,66,0.00,,,0.00,,2017-03-27 05:36:00,
2017-03-27 01:41:00,67.6,56.0,30.06,ESE,113,2.0,-999.0,66,0.00,,,0.00,,2017-03-27 05:41:00,
2017-03-27 01:46:00,67.6,56.0,30.07,NNW,338,1.0,-999.0,68,0.00,,,0.00,,2017-03-27 05:46:00,
2017-03-27 01:51:00,67.6,56.0,30.06,SSE,158,1.0,-999.0,68,0.00,,,0.00,,2017-03-27 05:51:00,
2017-03-27 01:56:00,67.6,57.0,30.07,ESE,113,2.0,-999.0,69,0.00,,,0.00,,2017-03-27 05:56:00,
2017-03-27 02:01:00,67.6,57.0,30.06,ESE,113,2.0,-999.0,69,0.00,,,0.00,,2017-03-27 06:01:00,
2017-03-27 02:06:00,67.6,57.0,30.06,ESE,113,1.0,-999.0,69,0.00,,,0.00,,2017-03-27 06:06:00,
2017-03-27 02:11:00,67.6,57.0,30.06,ESE,113,0.0,-999.0,70,0.00,,,0.00,,2017-03-27 06:11:00,
2017-03-27 02:16:00,67.5,57.0,30.06,SSE,158,1.0,-999.0,70,0.00,,,0.00,,2017-03-27 06:16:00,
2017-03-27 02:21:00,67.3,57.0,30.06,East,90,2.0,-999.0,70,0.00,,,0.00,,2017-03-27 06:21:00,
2017-03-27 02:26:00,67.3,57.0,30.05,ESE,113,0.0,-999.0,70,0.00,,,0.00,,2017-03-27 06:26:00,
2017-03-27 02:31:00,67.3,57.0,30.05,East,90,0.0,-999.0,70,0.00,,,0.00,,2017-03-27 06:31:00,
2017-03-27 02:36:00,67.3,57.0,30.05,SE,135,1.0,-999.0,70,0.00,,,0.00,,2017-03-27 06:36:00,
2017-03-27 02:41:00,67.3,57.0,30.05,SSE,158,2.0,-999.0,70,0.00,,,0.00,,2017-03-27 06:41:00,
2017-03-27 02:46:00,67.3,57.0,30.04,East,90,2.0,-999.0,70,0.00,,,0.00,,2017-03-27 06:46:00,
2017-03-27 02:51:00,67.3,57.0,30.05,NNE,23,0.0,-999.0,70,0.00,,,0.00,,2017-03-27 06:51:00,
2017-03-27 02:57:00,67.1,56.0,30.04,NNE,23,0.0,-999.0,70,0.00,,,0.00,,2017-03-27 06:57:00,
2017-03-27 03:02:00,66.9,57.0,30.04,NNW,338,0.0,-999.0,70,0.00,,,0.00,,2017-03-27 07:02:00,
2017-03-27 03:08:00,66.5,56.0,30.04,SW,225,0.0,-999.0,70,0.00,,,0.00,,2017-03-27 07:08:00,
2017-03-27 03:14:00,66.4,56.0,30.04,SW,225,0.0,-999.0,70,0.00,,,0.00,,2017-03-27 07:14:00,
2017-03-27 03:19:00,65.8,56.0,30.04,SW,225,0.0,-999.0,71,0.00,,,0.00,,2017-03-27 07:19:00,
2017-03-27 03:25:00,65.5,56.0,30.04,West,270,0.0,-999.0,73,0.00,,,0.00,,2017-03-27 07:25:00,
2017-03-27 03:31:00,65.2,56.0,30.04,SSW,203,0.0,-999.0,73,0.00,,,0.00,,2017-03-27 07:31:00,
2017-03-27 03:36:00,64.9,56.0,30.04,WSW,248,0.0,-999.0,74,0.00,,,0.00,,2017-03-27 07:36:00,
2017-03-27 03:42:00,64.8,56.0,30.04,SSW,203,0.0,-999.0,75,0.00,,,0.00,,2017-03-27 07:42:00,
2017-03-27 03:47:00,64.4,56.0,30.04,WSW,248,0.0,-999.0,75,0.00,,,0.00,,2017-03-27 07:47:00,
2017-03-27 03:52:00,64.1,56.0,30.04,SSW,203,0.0,-999.0,75,0.00,,,0.00,,2017-03-27 07:52:00,
2017-03-27 03:57:00,64.1,56.0,30.04,SW,225,0.0,-999.0,75,0.00,,,0.00,,2017-03-27 07:57:00,
2017-03-27 04:02:00,63.9,56.0,30.04,SSW,203,0.0,-999.0,75,0.00,,,0.00,,2017-03-27 08:02:00,
2017-03-27 04:07:00,63.9,56.0,30.04,SSW,203,0.0,-999.0,75,0.00,,,0.00,,2017-03-27 08:07:00,
2017-03-27 04:12:00,63.9,56.0,30.04,West,270,0.0,-999.0,76,0.00,,,0.00,,2017-03-27 08:12:00,
2017-03-27 04:17:00,63.9,56.0,30.04,South,180,0.0,-999.0,76,0.00,,,0.00,,2017-03-27 08:17:00,
2017-03-27 04:22:00,63.6,56.0,30.04,SSW,203,0.0,-999.0,76,0.00,,,0.00,,2017-03-27 08:22:00,
2017-03-27 04:27:00,63.4,56.0,30.04,South,180,0.0,-999.0,76,0.00,,,0.00,,2017-03-27 08:27:00,
2017-03-27 04:32:00,63.2,55.0,30.04,WNW,293,0.0,-999.0,76,0.00,,,0.00,,2017-03-27 08:32:00,
2017-03-27 04:37:00,63.0,56.0,30.04,NE,45,0.0,-999.0,78,0.00,,,0.00,,2017-03-27 08:37:00,
2017-03-27 04:42:00,63.0,56.0,30.04,South,180,0.0,-999.0,78,0.00,,,0.00,,2017-03-27 08:42:00,
2017-03-27 04:47:00,63.0,56.0,30.04,South,180,0.0,-999.0,79,0.00,,,0.00,,2017-03-27 08:47:00,
2017-03-27 04:52:00,62.7,56.0,30.04,SSW,203,0.0,-999.0,79,0.00,,,0.00,,2017-03-27 08:52:00,
2017-03-27 04:57:00,62.7,56.0,30.04,WNW,293,0.0,-999.0,79,0.00,,,0.00,,2017-03-27 08:57:00,
2017-03-27 05:02:00,62.7,56.0,30.04,WSW,248,0.0,-999.0,80,0.00,,,0.00,,2017-03-27 09:02:00,
2017-03-27 05:07:00,62.7,56.0,30.04,West,270,0.0,-999.0,81,0.00,,,0.00,,2017-03-27 09:07:00,
2017-03-27 05:13:00,62.7,56.0,30.03,NNW,338,0.0,-999.0,81,0.00,,,0.00,,2017-03-27 09:13:00,
2017-03-27 05:16:00,62.7,57.0,30.04,WSW,248,0.0,-999.0,81,0.00,,,0.00,,2017-03-27 09:16:00,
2017-03-27 05:21:00,63.0,57.0,30.04,West,270,0.0,-999.0,83,0.00,,,0.00,,2017-03-27 09:21:00,
2017-03-27 05:26:00,63.0,57.0,30.04,West,270,0.0,-999.0,83,0.00,,,0.00,,2017-03-27 09:26:00,
2017-03-27 05:31:00,63.0,58.0,30.04,West,270,0.0,-999.0,83,0.00,,,0.00,,2017-03-27 09:31:00,
2017-03-27 05:37:00,63.0,58.0,30.04,WNW,293,0.0,-999.0,83,0.00,,,0.00,,2017-03-27 09:37:00,
2017-03-27 05:42:00,63.0,58.0,30.04,ESE,113,0.0,-999.0,83,0.00,,,0.00,,2017-03-27 09:42:00,
2017-03-27 05:47:00,62.7,57.0,30.04,West,270,0.0,-999.0,83,0.00,,,0.00,,2017-03-27 09:47:00,
2017-03-27 05:52:00,62.5,57.0,30.04,WNW,293,0.0,-999.0,83,0.00,,,0.00,,2017-03-27 09:52:00,
2017-03-27 05:57:00,62.4,57.0,30.04,NE,45,0.0,-999.0,83,0.00,,,0.00,,2017-03-27 09:57:00,
2017-03-27 06:02:00,62.4,57.0,30.04,SSE,158,0.0,-999.0,83,0.00,,,0.00,,2017-03-27 10:02:00,
2017-03-27 06:07:00,62.4,57.0,30.04,SSW,203,0.0,-999.0,83,0.00,,,0.00,,2017-03-27 10:07:00,
2017-03-27 06:12:00,62.2,57.0,30.04,SSW,203,0.0,-999.0,83,0.00,,,0.00,,2017-03-27 10:12:00,
2017-03-27 06:17:00,62.1,57.0,30.04,South,180,0.0,-999.0,83,0.00,,,0.00,,2017-03-27 10:17:00,
2017-03-27 06:22:00,62.1,57.0,30.04,South,180,0.0,-999.0,83,0.00,,,0.00,,2017-03-27 10:22:00,
2017-03-27 06:27:00,61.9,57.0,30.04,South,180,0.0,-999.0,83,0.00,,,0.00,,2017-03-27 10:27:00,
2017-03-27 06:32:00,61.7,56.0,30.05,WNW,293,0.0,-999.0,83,0.00,,,0.00,,2017-03-27 10:32:00,
2017-03-27 06:37:00,61.7,56.0,30.05,WNW,293,0.0,-999.0,83,0.00,,,0.00,,2017-03-27 10:37:00,
2017-03-27 06:42:00,61.7,56.0,30.04,WNW,293,0.0,-999.0,83,0.00,,,0.00,,2017-03-27 10:42:00,
2017-03-27 06:47:00,62.2,57.0,30.05,WNW,293,0.0,-999.0,85,0.00,,,0.00,,2017-03-27 10:47:00,
2017-03-27 06:52:00,61.5,56.0,30.05,WNW,293,0.0,-999.0,85,0.00,,,0.00,,2017-03-27 10:52:00,
2017-03-27 06:57:00,61.5,56.0,30.04,WNW,293,0.0,-999.0,85,0.00,,,0.00,,2017-03-27 10:57:00,
2017-03-27 07:02:00,61.3,56.0,30.05,WNW,293,0.0,-999.0,85,0.00,,,0.00,,2017-03-27 11:02:00,
2017-03-27 07:07:00,61.1,56.0,30.05,NE,45,0.0,-999.0,85,0.00,,,0.00,,2017-03-27 11:07:00,
2017-03-27 07:12:00,61.5,56.0,30.05,West,270,0.0,-999.0,85,0.00,,,0.00,,2017-03-27 11:12:00,
2017-03-27 07:17:00,61.3,56.0,30.05,West,270,0.0,-999.0,85,0.00,,,0.00,,2017-03-27 11:17:00,
2017-03-27 07:22:00,61.1,56.0,30.05,South,180,0.0,-999.0,85,0.00,,,0.00,,2017-03-27 11:22:00,
2017-03-27 07:27:00,61.1,56.0,30.06,SW,225,0.0,-999.0,85,0.00,,,0.00,,2017-03-27 11:27:00,
2017-03-27 07:32:00,61.1,56.0,30.05,SSW,203,0.0,-999.0,85,0.00,,,0.00,,2017-03-27 11:32:00,
2017-03-27 07:37:00,61.1,56.0,30.05,SSW,203,0.0,-999.0,85,0.00,,,0.00,,2017-03-27 11:37:00,
2017-03-27 07:42:00,61.3,56.0,30.06,South,180,0.0,-999.0,85,0.00,,,0.00,,2017-03-27 11:42:00,
2017-03-27 07:47:00,61.9,57.0,30.05,SSW,203,0.0,-999.0,85,0.00,,,0.00,,2017-03-27 11:47:00,
2017-03-27 07:52:00,61.9,57.0,30.06,West,270,0.0,-999.0,85,0.00,,,0.00,,2017-03-27 11:52:00,
2017-03-27 07:57:00,62.2,57.0,30.06,South,180,0.0,-999.0,85,0.00,,,0.00,,2017-03-27 11:57:00,
2017-03-27 08:02:00,63.0,58.0,30.06,SW,225,0.0,-999.0,86,0.00,,,0.00,,2017-03-27 12:02:00,
2017-03-27 08:07:00,63.4,59.0,30.07,South,180,0.0,-999.0,86,0.00,,,0.00,,2017-03-27 12:07:00,
2017-03-27 08:12:00,63.4,59.0,30.07,SW,225,0.0,-999.0,86,0.00,,,0.00,,2017-03-27 12:12:00,
2017-03-27 08:17:00,63.4,59.0,30.07,West,270,0.0,-999.0,86,0.00,,,0.00,,2017-03-27 12:17:00,
2017-03-27 08:22:00,63.4,59.0,30.08,West,270,0.0,-999.0,86,0.00,,,0.00,,2017-03-27 12:22:00,
2017-03-27 08:27:00,64.6,60.0,30.07,WNW,293,0.0,-999.0,86,0.00,,,0.00,,2017-03-27 12:27:00,
2017-03-27 08:32:00,65.0,60.0,30.08,South,180,0.0,-999.0,86,0.00,,,0.00,,2017-03-27 12:32:00,
2017-03-27 08:37:00,65.8,61.0,30.09,South,180,0.0,-999.0,85,0.00,,,0.00,,2017-03-27 12:37:00,
2017-03-27 08:42:00,65.9,61.0,30.08,SW,225,0.0,-999.0,85,0.00,,,0.00,,2017-03-27 12:42:00,
2017-03-27 08:47:00,65.8,61.0,30.09,SSW,203,0.0,-999.0,85,0.00,,,0.00,,2017-03-27 12:47:00,
2017-03-27 08:52:00,65.8,61.0,30.09,West,270,0.0,-999.0,85,0.00,,,0.00,,2017-03-27 12:52:00,
2017-03-27 08:58:00,65.9,61.0,30.09,SSE,158,0.0,-999.0,85,0.00,,,0.00,,2017-03-27 12:58:00,
2017-03-27 09:03:00,66.4,61.0,30.09,WSW,248,0.0,-999.0,85,0.00,,,0.00,,2017-03-27 13:03:00,
2017-03-27 09:08:00,67.3,61.0,30.09,SSW,203,0.0,-999.0,83,0.00,,,0.00,,2017-03-27 13:08:00,
2017-03-27 09:13:00,68.4,61.0,30.09,NNW,338,0.0,-999.0,80,0.00,,,0.00,,2017-03-27 13:13:00,
2017-03-27 09:18:00,70.0,62.0,30.08,ENE,68,0.0,-999.0,78,0.00,,,0.00,,2017-03-27 13:18:00,
2017-03-27 09:23:00,70.0,62.0,30.10,South,180,0.0,-999.0,76,0.00,,,0.00,,2017-03-27 13:23:00,
2017-03-27 09:28:00,70.0,62.0,30.09,South,180,0.0,-999.0,78,0.00,,,0.00,,2017-03-27 13:28:00,
2017-03-27 09:33:00,70.9,62.0,30.10,SSW,203,0.0,-999.0,75,0.00,,,0.00,,2017-03-27 13:33:00,
2017-03-27 09:38:00,71.9,63.0,30.09,South,180,0.0,-999.0,74,0.00,,,0.00,,2017-03-27 13:38:00,
2017-03-27 09:43:00,74.0,61.0,30.10,ESE,113,2.0,-999.0,63,0.00,,,0.00,,2017-03-27 13:43:00,
2017-03-27 09:48:00,77.1,59.0,30.10,East,90,5.0,-999.0,54,0.00,,,0.00,,2017-03-27 13:48:00,
2017-03-27 09:53:00,75.9,59.0,30.09,ESE,113,1.0,-999.0,55,0.00,,,0.00,,2017-03-27 13:53:00,
2017-03-27 09:58:00,75.3,58.0,30.10,WNW,293,2.0,-999.0,55,0.00,,,0.00,,2017-03-27 13:58:00,
2017-03-27 10:03:00,76.4,58.0,30.09,East,90,2.0,-999.0,53,0.00,,,0.00,,2017-03-27 14:03:00,
2017-03-27 10:08:00,76.0,57.0,30.09,West,270,1.0,-999.0,53,0.00,,,0.00,,2017-03-27 14:08:00,
2017-03-27 10:13:00,76.9,59.0,30.09,North,0,2.0,-999.0,55,0.00,,,0.00,,2017-03-27 14:13:00,
2017-03-27 10:18:00,79.1,58.0,30.09,East,90,4.0,-999.0,49,0.00,,,0.00,,2017-03-27 14:18:00,
2017-03-27 10:23:00,79.9,57.0,30.10,SE,135,1.0,-999.0,46,0.00,,,0.00,,2017-03-27 14:23:00,
2017-03-27 10:28:00,79.9,57.0,30.07,South,180,1.0,-999.0,46,0.00,,,0.00,,2017-03-27 14:28:00,
2017-03-27 10:33:00,80.1,58.0,30.09,North,0,2.0,-999.0,46,0.00,,,0.00,,2017-03-27 14:33:00,
2017-03-27 10:38:00,78.3,58.0,30.09,East,90,3.0,-999.0,50,0.00,,,0.00,,2017-03-27 14:38:00,
2017-03-27 10:43:00,78.5,57.0,30.09,NE,45,3.0,-999.0,49,0.00,,,0.00,,2017-03-27 14:43:00,
2017-03-27 10:48:00,78.3,58.0,30.09,ESE,113,2.0,-999.0,50,0.00,,,0.00,,2017-03-27 14:48:00,
2017-03-27 10:53:00,79.1,57.0,30.08,NNE,23,3.0,-999.0,48,0.00,,,0.00,,2017-03-27 14:53:00,
2017-03-27 10:58:00,80.1,56.0,30.08,East,90,2.0,-999.0,45,0.00,,,0.00,,2017-03-27 14:58:00,
2017-03-27 11:03:00,81.3,57.0,30.10,NNE,23,2.0,-999.0,44,0.00,,,0.00,,2017-03-27 15:03:00,
2017-03-27 11:08:00,80.7,54.0,30.08,ESE,113,1.0,-999.0,40,0.00,,,0.00,,2017-03-27 15:08:00,
2017-03-27 11:13:00,80.1,58.0,30.10,SSW,203,0.0,-999.0,46,0.00,,,0.00,,2017-03-27 15:13:00,
2017-03-27 11:18:00,82.6,56.0,30.08,NE,45,2.0,-999.0,40,0.00,,,0.00,,2017-03-27 15:18:00,
2017-03-27 11:23:00,83.8,56.0,30.09,ENE,68,2.0,-999.0,40,0.00,,,0.00,,2017-03-27 15:23:00,
2017-03-27 11:28:00,81.0,57.0,30.09,ESE,113,3.0,-999.0,45,0.00,,,0.00,,2017-03-27 15:28:00,
2017-03-27 11:33:00,79.6,57.0,30.08,NE,45,3.0,-999.0,46,0.00,,,0.00,,2017-03-27 15:33:00,
2017-03-27 11:38:00,81.9,55.0,30.08,West,270,1.0,-999.0,40,0.00,,,0.00,,2017-03-27 15:38:00,
2017-03-27 11:43:00,81.9,56.0,30.09,ESE,113,1.0,-999.0,41,0.00,,,0.00,,2017-03-27 15:43:00,
2017-03-27 11:48:00,82.6,55.0,30.08,NNE,23,3.0,-999.0,40,0.00,,,0.00,,2017-03-27 15:48:00,
2017-03-27 11:53:00,83.0,56.0,30.08,NE,45,4.0,-999.0,40,0.00,,,0.00,,2017-03-27 15:53:00,
2017-03-27 11:58:00,82.1,57.0,30.07,NNE,23,6.0,-999.0,43,0.00,,,0.00,,2017-03-27 15:58:00,
2017-03-27 12:03:00,82.1,56.0,30.09,ESE,113,2.0,-999.0,40,0.00,,,0.00,,2017-03-27 16:03:00,
2017-03-27 12:09:00,81.9,55.0,30.07,ENE,68,2.0,-999.0,40,0.00,,,0.00,,2017-03-27 16:09:00,
2017-03-27 12:14:00,82.8,55.0,30.07,North,0,4.0,-999.0,39,0.00,,,0.00,,2017-03-27 16:14:00,
2017-03-27 12:19:00,81.0,57.0,30.08,ENE,68,2.0,-999.0,45,0.00,,,0.00,,2017-03-27 16:19:00,
2017-03-27 12:24:00,82.3,54.0,30.08,East,90,3.0,-999.0,39,0.00,,,0.00,,2017-03-27 16:24:00,
2017-03-27 12:29:00,82.8,56.0,30.07,NE,45,3.0,-999.0,40,0.00,,,0.00,,2017-03-27 16:29:00,
2017-03-27 12:34:00,81.3,56.0,30.07,ENE,68,1.0,-999.0,43,0.00,,,0.00,,2017-03-27 16:34:00,
2017-03-27 12:39:00,83.2,56.0,30.06,ESE,113,3.0,-999.0,40,0.00,,,0.00,,2017-03-27 16:39:00,
2017-03-27 12:44:00,81.7,55.0,30.07,ESE,113,2.0,-999.0,40,0.00,,,0.00,,2017-03-27 16:44:00,
2017-03-27 12:49:00,82.3,54.0,30.07,West,270,2.0,-999.0,39,0.00,,,0.00,,2017-03-27 16:49:00,
2017-03-27 12:54:00,80.1,56.0,30.07,East,90,4.0,-999.0,44,0.00,,,0.00,,2017-03-27 16:54:00,
2017-03-27 12:59:00,82.3,56.0,30.08,ESE,113,5.0,-999.0,40,0.00,,,0.00,,2017-03-27 16:59:00,
2017-03-27 13:04:00,82.8,56.0,30.06,ENE,68,6.0,-999.0,40,0.00,,,0.00,,2017-03-27 17:04:00,
2017-03-27 13:09:00,82.6,55.0,30.06,SSW,203,1.0,-999.0,40,0.00,,,0.00,,2017-03-27 17:09:00,
2017-03-27 13:14:00,83.9,54.0,30.07,ESE,113,3.0,-999.0,35,0.00,,,0.00,,2017-03-27 17:14:00,
2017-03-27 13:19:00,81.7,55.0,30.06,ENE,68,2.0,-999.0,40,0.00,,,0.00,,2017-03-27 17:19:00,
2017-03-27 13:24:00,82.8,54.0,30.07,SSE,158,4.0,-999.0,37,0.00,,,0.00,,2017-03-27 17:24:00,
2017-03-27 13:29:00,84.4,56.0,30.07,NNW,338,4.0,-999.0,39,0.00,,,0.00,,2017-03-27 17:29:00,
2017-03-27 13:34:00,82.8,56.0,30.06,NNE,23,5.0,-999.0,40,0.00,,,0.00,,2017-03-27 17:34:00,
2017-03-27 13:39:00,83.2,56.0,30.06,ENE,68,1.0,-999.0,40,0.00,,,0.00,,2017-03-27 17:39:00,
2017-03-27 13:44:00,81.3,56.0,30.06,NNW,338,3.0,-999.0,41,0.00,,,0.00,,2017-03-27 17:44:00,
2017-03-27 13:49:00,82.8,56.0,30.06,East,90,6.0,-999.0,40,0.00,,,0.00,,2017-03-27 17:49:00,
2017-03-27 13:54:00,82.1,58.0,30.05,SE,135,1.0,-999.0,44,0.00,,,0.00,,2017-03-27 17:54:00,
2017-03-27 13:58:00,83.8,56.0,30.06,NNW,338,7.0,-999.0,39,0.00,,,0.00,,2017-03-27 17:58:00,
2017-03-27 14:03:00,82.8,56.0,30.06,South,180,4.0,-999.0,40,0.00,,,0.00,,2017-03-27 18:03:00,
2017-03-27 14:08:00,81.7,57.0,30.05,ENE,68,4.0,-999.0,43,0.00,,,0.00,,2017-03-27 18:08:00,
2017-03-27 14:13:00,82.8,56.0,30.05,East,90,2.0,-999.0,40,0.00,,,0.00,,2017-03-27 18:13:00,
2017-03-27 14:18:00,83.9,54.0,30.05,East,90,6.0,-999.0,37,0.00,,,0.00,,2017-03-27 18:18:00,
2017-03-27 14:20:00,82.3,54.0,30.04,ESE,113,2.0,-999.0,39,0.00,,,0.00,,2017-03-27 18:20:00,
2017-03-27 14:25:00,82.3,56.0,30.04,East,90,2.0,-999.0,40,0.00,,,0.00,,2017-03-27 18:25:00,
2017-03-27 14:30:00,82.6,56.0,30.05,West,270,2.0,-999.0,40,0.00,,,0.00,,2017-03-27 18:30:00,
2017-03-27 14:35:00,83.9,54.0,30.05,NNE,23,3.0,-999.0,35,0.00,,,0.00,,2017-03-27 18:35:00,
2017-03-27 14:40:00,83.5,52.0,30.03,NE,45,3.0,-999.0,34,0.00,,,0.00,,2017-03-27 18:40:00,
2017-03-27 14:45:00,83.8,54.0,30.04,ENE,68,2.0,-999.0,37,0.00,,,0.00,,2017-03-27 18:45:00,
2017-03-27 14:50:00,81.9,51.0,30.04,WSW,248,5.0,-999.0,35,0.00,,,0.00,,2017-03-27 18:50:00,
2017-03-27 14:55:00,82.1,53.0,30.03,ENE,68,7.0,-999.0,37,0.00,,,0.00,,2017-03-27 18:55:00,
2017-03-27 15:00:00,83.5,52.0,30.02,NNW,338,4.0,-999.0,35,0.00,,,0.00,,2017-03-27 19:00:00,
2017-03-27 15:05:00,82.8,53.0,30.03,East,90,3.0,-999.0,35,0.00,,,0.00,,2017-03-27 19:05:00,
2017-03-27 15:10:00,83.9,54.0,30.02,West,270,3.0,-999.0,35,0.00,,,0.00,,2017-03-27 19:10:00,
2017-03-27 15:15:00,83.5,53.0,30.02,ESE,113,6.0,-999.0,35,0.00,,,0.00,,2017-03-27 19:15:00,
2017-03-27 15:20:00,81.0,53.0,30.01,SSE,158,2.0,-999.0,39,0.00,,,0.00,,2017-03-27 19:20:00,
2017-03-27 15:25:00,82.1,52.0,30.01,ENE,68,5.0,-999.0,35,0.00,,,0.00,,2017-03-27 19:25:00,
2017-03-27 15:30:00,82.1,53.0,30.01,NNE,23,5.0,-999.0,37,0.00,,,0.00,,2017-03-27 19:30:00,
2017-03-27 15:35:00,82.8,53.0,30.00,ENE,68,5.0,-999.0,35,0.00,,,0.00,,2017-03-27 19:35:00,
2017-03-27 15:36:00,82.3,53.0,30.00,NE,45,2.0,-999.0,37,0.00,,,0.00,,2017-03-27 19:36:00,
2017-03-27 15:37:00,81.7,53.0,30.00,NNE,23,2.0,-999.0,37,0.00,,,0.00,,2017-03-27 19:37:00,
2017-03-27 15:41:00,82.8,53.0,30.01,ESE,113,5.0,-999.0,35,0.00,,,0.00,,2017-03-27 19:41:00,
2017-03-27 15:44:00,82.1,52.0,29.99,ESE,113,5.0,-999.0,35,0.00,,,0.00,,2017-03-27 19:44:00,
2017-03-27 15:46:00,82.1,53.0,30.00,ESE,113,1.0,-999.0,37,0.00,,,0.00,,2017-03-27 19:46:00,
2017-03-27 15:49:00,81.9,53.0,30.00,NNE,23,8.0,-999.0,37,0.00,,,0.00,,2017-03-27 19:49:00,
2017-03-27 15:50:00,81.9,53.0,30.00,NE,45,3.0,-999.0,37,0.00,,,0.00,,2017-03-27 19:50:00,
2017-03-27 15:53:00,81.4,52.0,29.99,NE,45,3.0,-999.0,37,0.00,,,0.00,,2017-03-27 19:53:00,
2017-03-27 15:58:00,81.7,52.0,30.00,East,90,6.0,-999.0,37,0.00,,,0.00,,2017-03-27 19:58:00,
2017-03-27 16:02:00,81.9,53.0,29.99,ESE,113,5.0,-999.0,37,0.00,,,0.00,,2017-03-27 20:02:00,
2017-03-27 16:03:00,81.9,53.0,29.99,NE,45,4.0,-999.0,37,0.00,,,0.00,,2017-03-27 20:03:00,
2017-03-27 16:04:00,81.3,53.0,29.99,ESE,113,5.0,-999.0,37,0.00,,,0.00,,2017-03-27 20:04:00,
2017-03-27 16:09:00,80.1,52.0,30.00,East,90,3.0,-999.0,39,0.00,,,0.00,,2017-03-27 20:09:00,
2017-03-27 16:15:00,81.7,55.0,30.00,NE,45,7.0,-999.0,40,0.00,,,0.00,,2017-03-27 20:15:00,
2017-03-27 16:20:00,81.0,53.0,30.01,ESE,113,2.0,-999.0,39,0.00,,,0.00,,2017-03-27 20:20:00,
2017-03-27 16:25:00,80.1,53.0,29.99,NE,45,1.0,-999.0,40,0.00,,,0.00,,2017-03-27 20:25:00,
2017-03-27 16:30:00,80.3,53.0,29.99,ESE,113,1.0,-999.0,40,0.00,,,0.00,,2017-03-27 20:30:00,
2017-03-27 16:35:00,81.0,53.0,29.99,NE,45,2.0,-999.0,39,0.00,,,0.00,,2017-03-27 20:35:00,
2017-03-27 16:41:00,81.4,54.0,29.99,ESE,113,7.0,-999.0,39,0.00,,,0.00,,2017-03-27 20:41:00,
2017-03-27 16:47:00,81.4,53.0,29.98,ENE,68,2.0,-999.0,37,0.00,,,0.00,,2017-03-27 20:47:00,
2017-03-27 16:52:00,81.3,54.0,29.99,East,90,6.0,-999.0,40,0.00,,,0.00,,2017-03-27 20:52:00,
2017-03-27 16:58:00,80.1,54.0,29.97,East,90,4.0,-999.0,40,0.00,,,0.00,,2017-03-27 20:58:00,
2017-03-27 17:03:00,80.1,53.0,29.98,ESE,113,4.0,-999.0,40,0.00,,,0.00,,2017-03-27 21:03:00,
2017-03-27 17:09:00,79.6,53.0,29.98,NE,45,4.0,-999.0,40,0.00,,,0.00,,2017-03-27 21:09:00,
2017-03-27 17:14:00,78.8,54.0,29.97,ESE,113,2.0,-999.0,43,0.00,,,0.00,,2017-03-27 21:14:00,
2017-03-27 17:20:00,79.6,54.0,29.97,NE,45,2.0,-999.0,41,0.00,,,0.00,,2017-03-27 21:20:00,
2017-03-27 17:25:00,79.9,54.0,29.98,East,90,5.0,-999.0,40,0.00,,,0.00,,2017-03-27 21:25:00,
2017-03-27 17:30:00,79.4,54.0,29.99,East,90,2.0,-999.0,41,0.00,,,0.00,,2017-03-27 21:30:00,
2017-03-27 17:35:00,79.9,54.0,29.98,East,90,6.0,-999.0,40,0.00,,,0.00,,2017-03-27 21:35:00,